Location: Calvera
(42.3882°N, 0.6137°E)
Time: 14:43:51
(UTC+00:00)

Cosmos 2228 - Pass Details

Date: 28 October 2020
Orbit: 590 x 617 km, 82.5° (Epoch: 24 November)

Event Time Altitude Azimuth Distance (km) Brightness Sun altitude
Rises 04:39:18 0° 350° (N) 2,879 6.4 -20.3°
Reaches altitude 10° 04:41:31 10° 349° (N) 1,975 5.5 -19.9°
Maximum altitude 04:45:53 79° 265° (W) 630 2.9 -19.1°
Drops below altitude 10° 04:50:15 10° 178° (S) 1,970 5.7 -18.3°
Sets 04:52:28 0° 177° (S) 2,873 6.6 -17.9°
